Weather History for Kansas City International, MO

Change the Weather History Date:

Saturday, June 15, 2013

  Actual Average Record
Temperature  
Mean Temperature 78 °F 74 °F  
Max Temperature 90 °F 84 °F 102 °F (1953)
Min Temperature 65 °F 64 °F 52 °F (1917)
Degree Days  
Heating Degree Days 0 0  
Month to date heating degree days 17 7  
Since 1 June heating degree days 17 7  
Since 1 July heating degree days 5202 5131  
Cooling Degree Days 13 9  
Month to date cooling degree days 82 106  
Year to date cooling degree days 187 222  
Since 1 June cooling degree days 82 106  
Growing Degree Days 28 (Base 50)    
Moisture  
Dew Point 66 °F    
Average Humidity 72    
Maximum Humidity 93    
Minimum Humidity 51    
Precipitation  
Precipitation 0.30 in 0.17 in 2.16 in (2009)
Month to date precipitation 1.86 2.66  
Year to date precipitation 16.79 16.49  
Snow  
Snow 0.00 in 0.00 in 0.00 in ()
Month to date snowfall 0.0 0.0  
Since 1 June snowfall 0.0 0.0  
Since 1 July snowfall 31.8 18.8  
Snow Depth 0.00 in    
Sea Level Pressure  
Sea Level Pressure 29.94 in    
Wind  
Wind Speed 11 mph (South)    
Max Wind Speed 37 mph    
Max Gust Speed 44 mph    
Visibility 8 miles    
Events Rain , Thunderstorm    
T = Trace of Precipitation, MM = Missing Value Source: NWS Daily Summary

Daily Weather History Graph

Daily Weather History Graph

Search for Another Location

Airport:

Trip Planner

Search our weather history database for the weather conditions in past years. The results will help you decide how hot, cold, wet, or windy it might be!

Date:

Astronomy

Jun. 15, 2013 Rise Set
Actual Time 5:51 AM CDT 8:47 PM CDT
Civil Twilight 5:19 AM CDT 9:19 PM CDT
Nautical Twilight 4:38 AM CDT 10:00 PM CDT
Astronomical Twilight 3:51 AM CDT 10:47 PM CDT
Moon 12:25 PM CDT (6/15) 12:25 AM CDT (6/15)
Length of Visible Light 16h 00m
Length of Day
14h 55m
Waxing Crescent, 40% of the Moon is Illuminated
Jun 15
Waxing Crescent
Jun 16
First Quarter
Jun 23
Full
Jun 29
Last Quarter
Jul 8
New

Hourly Weather History & Observations

Time (CDT) Temp. Heat Index Dew Point Humidity Pressure Visibility Wind Dir Wind Speed Gust Speed Precip Events Conditions
12:53 AM 77.0 °F - 66.9 °F 71% 29.89 in 10.0 mi South 16.1 mph 23.0 mph N/A   Scattered Clouds
1:53 AM 77.0 °F - 68.0 °F 74% 29.90 in 10.0 mi SSE 8.1 mph - N/A   Scattered Clouds
2:53 AM 77.0 °F - 69.1 °F 76% 29.93 in 10.0 mi NE 8.1 mph - N/A   Mostly Cloudy
3:53 AM 73.9 °F - 66.0 °F 76% 29.93 in 10.0 mi ESE 12.7 mph - N/A   Mostly Cloudy
4:53 AM 73.9 °F - 66.0 °F 76% 29.91 in 10.0 mi SE 18.4 mph 26.5 mph N/A   Scattered Clouds
5:53 AM 73.0 °F - 64.9 °F 76% 29.92 in 10.0 mi SSE 10.4 mph - N/A   Mostly Cloudy
6:53 AM 75.0 °F - 68.0 °F 79% 29.92 in 10.0 mi South 15.0 mph - N/A   Mostly Cloudy
7:53 AM 77.0 °F - 70.0 °F 79% 29.92 in 10.0 mi SSE 12.7 mph - N/A   Mostly Cloudy
8:53 AM 78.1 °F - 71.1 °F 79% 29.93 in 5.0 mi South 12.7 mph - N/A   Haze
9:53 AM 81.0 °F 85.2 °F 72.0 °F 74% 29.91 in 10.0 mi South 13.8 mph - N/A   Mostly Cloudy
10:53 AM 82.0 °F 86.7 °F 72.0 °F 71% 29.93 in 10.0 mi SSW 13.8 mph 19.6 mph N/A   Mostly Cloudy
11:53 AM 82.9 °F 88.0 °F 72.0 °F 69% 29.93 in 10.0 mi West 6.9 mph - 0.00 in Rain Light Rain
12:53 PM 84.9 °F 88.8 °F 69.1 °F 59% 29.93 in 10.0 mi WSW 6.9 mph - 0.00 in   Mostly Cloudy
1:53 PM 87.1 °F 91.3 °F 69.1 °F 55% 29.91 in 10.0 mi SW 8.1 mph - N/A   Mostly Cloudy
2:53 PM 86.0 °F 88.8 °F 66.9 °F 53% 29.88 in 10.0 mi NW 10.4 mph - N/A   Mostly Cloudy
3:53 PM 82.0 °F 83.8 °F 64.9 °F 56% 29.89 in 10.0 mi NNW 9.2 mph - N/A   Overcast
4:08 PM 82.4 °F 83.9 °F 64.4 °F 54% 29.96 in 10.0 mi WNW 5.8 mph - N/A Thunderstorm Thunderstorm
4:24 PM 68.0 °F - 64.4 °F 88% 30.03 in 1.8 mi SSE 19.6 mph 42.6 mph 0.04 in Thunderstorm Overcast
4:26 PM 68.0 °F - 64.4 °F 88% 30.02 in 1.0 mi SE 19.6 mph 36.8 mph 0.09 in Rain , Thunderstorm Thunderstorms and Rain
4:32 PM 66.2 °F - 64.4 °F 94% 30.02 in 1.5 mi SE 13.8 mph 29.9 mph 0.12 in Rain , Thunderstorm Heavy Thunderstorms and Rain
4:35 PM 66.2 °F - 64.4 °F 94% 30.02 in 2.5 mi SE 13.8 mph 29.9 mph 0.12 in Rain , Thunderstorm Heavy Thunderstorms and Rain
4:53 PM 66.9 °F - 64.9 °F 93% 29.96 in 2.5 mi South 13.8 mph - 0.12 in Rain , Thunderstorm Light Thunderstorms and Rain
5:05 PM 68.0 °F - 64.4 °F 88% 29.98 in 10.0 mi South 16.1 mph - 0.00 in Thunderstorm Thunderstorm
5:29 PM 68.0 °F - 64.4 °F 88% 30.00 in 2.0 mi South 15.0 mph - 0.04 in Rain , Thunderstorm Thunderstorms and Rain
5:38 PM 68.0 °F - 64.4 °F 88% 30.01 in 7.0 mi SSW 15.0 mph - 0.06 in Rain , Thunderstorm Light Thunderstorms and Rain
5:53 PM 68.0 °F - 64.9 °F 90% 29.97 in 7.0 mi South 18.4 mph 24.2 mph 0.09 in Rain , Thunderstorm Light Thunderstorms and Rain
6:35 PM 68.0 °F - 64.4 °F 88% 29.94 in 7.0 mi South 17.3 mph 25.3 mph 0.09 in Rain Light Rain
6:53 PM 69.1 °F - 64.9 °F 87% 29.91 in 10.0 mi South 17.3 mph 27.6 mph 0.09 in   Mostly Cloudy
7:53 PM 69.1 °F - 64.0 °F 84% 29.88 in 10.0 mi SSE 12.7 mph - N/A   Overcast
8:53 PM 68.0 °F - 64.0 °F 87% 29.89 in 10.0 mi SSE 12.7 mph - 0.00 in   Mostly Cloudy
9:41 PM 68.0 °F - 64.4 °F 88% 29.97 in 10.0 mi North 4.6 mph - N/A   Overcast
9:53 PM 68.0 °F - 64.9 °F 90% 29.94 in 10.0 mi Calm Calm - N/A   Overcast
10:12 PM 69.8 °F - 64.4 °F 83% 29.99 in 10.0 mi NNE 5.8 mph - N/A   Overcast
10:53 PM 68.0 °F - 64.9 °F 90% 29.95 in 10.0 mi ENE 10.4 mph - N/A   Scattered Clouds
11:53 PM 66.9 °F - 64.0 °F 90% 29.94 in 10.0 mi ESE 6.9 mph - N/A   Partly Cloudy